Year,Month,Day,Hour,Minute,Value (Times are PST for temperature in C)
2015,05,14,00,00,12.00
2015,05,14,00,01,12.00
2015,05,14,00,02,12.00
2015,05,14,00,03,11.90
2015,05,14,00,04,11.90
2015,05,14,00,05,11.90
2015,05,14,00,06,11.90
2015,05,14,00,07,11.90
2015,05,14,00,08,11.90
2015,05,14,00,09,11.90
2015,05,14,00,10,11.90
2015,05,14,00,11,11.90
2015,05,14,00,12,11.80
2015,05,14,00,13,11.80
2015,05,14,00,14,11.80
2015,05,14,00,15,11.80
2015,05,14,00,16,11.80
2015,05,14,00,17,11.80
2015,05,14,00,18,11.80
2015,05,14,00,19,11.80
2015,05,14,00,20,11.80
2015,05,14,00,21,11.80
2015,05,14,00,22,11.80
2015,05,14,00,23,11.80
2015,05,14,00,24,11.80
2015,05,14,00,25,11.70
2015,05,14,00,26,11.70
2015,05,14,00,27,11.70
2015,05,14,00,28,11.60
2015,05,14,00,29,11.60
2015,05,14,00,30,11.60
2015,05,14,00,31,11.60
2015,05,14,00,32,11.60
2015,05,14,00,33,11.60
2015,05,14,00,34,11.60
2015,05,14,00,35,11.60
2015,05,14,00,36,11.60
2015,05,14,00,37,11.60
2015,05,14,00,38,11.60
2015,05,14,00,39,11.50
2015,05,14,00,40,11.50
2015,05,14,00,41,11.50
2015,05,14,00,42,11.40
2015,05,14,00,43,11.40
2015,05,14,00,44,11.40
2015,05,14,00,45,11.40
2015,05,14,00,46,11.40
2015,05,14,00,47,11.40
2015,05,14,00,48,11.40
2015,05,14,00,49,11.40
2015,05,14,00,50,11.40
2015,05,14,00,51,11.40
2015,05,14,00,52,11.40
2015,05,14,00,53,11.40
2015,05,14,00,54,11.40
2015,05,14,00,55,11.40
2015,05,14,00,56,11.40
2015,05,14,00,57,11.40
2015,05,14,00,58,11.40
2015,05,14,00,59,11.40
2015,05,14,01,00,11.40
2015,05,14,01,01,11.40
2015,05,14,01,02,11.30
2015,05,14,01,03,11.30
2015,05,14,01,04,11.30
2015,05,14,01,05,11.30
2015,05,14,01,06,11.30
2015,05,14,01,07,11.30
2015,05,14,01,08,11.30
2015,05,14,01,09,11.30
2015,05,14,01,10,11.30
2015,05,14,01,11,11.30
2015,05,14,01,12,11.30
2015,05,14,01,13,11.30
2015,05,14,01,14,11.30
2015,05,14,01,15,11.30
2015,05,14,01,16,11.30
2015,05,14,01,17,11.30
2015,05,14,01,18,11.30
2015,05,14,01,19,11.30
2015,05,14,01,20,11.30
2015,05,14,01,21,11.30
2015,05,14,01,22,11.30
2015,05,14,01,23,11.30
2015,05,14,01,24,11.30
2015,05,14,01,25,11.30
2015,05,14,01,26,11.20
2015,05,14,01,27,11.20
2015,05,14,01,28,11.20
2015,05,14,01,29,11.20
2015,05,14,01,30,11.20
2015,05,14,01,31,11.20
2015,05,14,01,32,11.20
2015,05,14,01,33,11.10
2015,05,14,01,34,11.10
2015,05,14,01,35,11.10
2015,05,14,01,36,11.10
2015,05,14,01,37,11.10
2015,05,14,01,38,11.10
2015,05,14,01,39,11.10
2015,05,14,01,40,11.10
2015,05,14,01,41,11.10
2015,05,14,01,42,11.20
2015,05,14,01,43,11.20
2015,05,14,01,44,11.20
2015,05,14,01,45,11.20
2015,05,14,01,46,11.20
2015,05,14,01,47,11.20
2015,05,14,01,48,11.20
2015,05,14,01,49,11.20
2015,05,14,01,50,11.20
2015,05,14,01,51,11.20
2015,05,14,01,52,11.20
2015,05,14,01,53,11.20
2015,05,14,01,54,11.20
2015,05,14,01,55,11.20
2015,05,14,01,56,11.20
2015,05,14,01,57,11.20
2015,05,14,01,58,11.20
2015,05,14,01,59,11.20
2015,05,14,02,00,11.20
2015,05,14,02,01,11.20
2015,05,14,02,02,11.20
2015,05,14,02,03,11.20
2015,05,14,02,04,11.10
2015,05,14,02,05,11.20
2015,05,14,02,06,11.10
2015,05,14,02,07,11.10
2015,05,14,02,08,11.10
2015,05,14,02,09,11.10
2015,05,14,02,10,11.10
2015,05,14,02,11,11.10
2015,05,14,02,12,11.10
2015,05,14,02,13,11.10
2015,05,14,02,14,11.10
2015,05,14,02,15,11.10
2015,05,14,02,16,11.10
2015,05,14,02,17,11.10
2015,05,14,02,18,11.10
2015,05,14,02,19,11.10
2015,05,14,02,20,11.10
2015,05,14,02,21,11.10
2015,05,14,02,22,11.10
2015,05,14,02,23,11.10
2015,05,14,02,24,11.10
2015,05,14,02,25,11.10
2015,05,14,02,26,11.10
2015,05,14,02,27,11.10
2015,05,14,02,28,11.10
2015,05,14,02,29,11.10
2015,05,14,02,30,11.10
2015,05,14,02,31,11.10
2015,05,14,02,32,11.10
2015,05,14,02,33,11.10
2015,05,14,02,34,11.10
2015,05,14,02,35,11.10
2015,05,14,02,36,11.10
2015,05,14,02,37,11.10
2015,05,14,02,38,11.10
2015,05,14,02,39,11.10
2015,05,14,02,40,11.10
2015,05,14,02,41,11.10
2015,05,14,02,42,11.10
2015,05,14,02,43,11.10
2015,05,14,02,44,11.10
2015,05,14,02,45,11.10
2015,05,14,02,46,11.10
2015,05,14,02,47,11.10
2015,05,14,02,48,11.10
2015,05,14,02,49,11.10
2015,05,14,02,50,11.10
2015,05,14,02,51,11.10
2015,05,14,02,52,11.10
2015,05,14,02,53,11.10
2015,05,14,02,54,11.10
2015,05,14,02,55,11.10
2015,05,14,02,56,11.10
2015,05,14,02,57,11.10
2015,05,14,02,58,11.00
2015,05,14,02,59,11.00
2015,05,14,03,00,11.00
2015,05,14,03,01,10.90
2015,05,14,03,02,10.90
2015,05,14,03,03,10.90
2015,05,14,03,04,10.90
2015,05,14,03,05,10.90
2015,05,14,03,06,10.90
2015,05,14,03,07,10.90
2015,05,14,03,08,10.90
2015,05,14,03,09,10.90
2015,05,14,03,10,10.90
2015,05,14,03,11,10.90
2015,05,14,03,12,10.90
2015,05,14,03,13,10.90
2015,05,14,03,14,10.90
2015,05,14,03,15,11.00
2015,05,14,03,16,11.00
2015,05,14,03,17,10.90
2015,05,14,03,18,10.90
2015,05,14,03,19,10.90
2015,05,14,03,20,10.90
2015,05,14,03,21,10.90
2015,05,14,03,22,10.90
2015,05,14,03,23,10.90
2015,05,14,03,24,10.90
2015,05,14,03,25,10.90
2015,05,14,03,26,10.80
2015,05,14,03,27,10.80
2015,05,14,03,28,10.80
2015,05,14,03,29,10.80
2015,05,14,03,30,10.80
2015,05,14,03,31,10.80
2015,05,14,03,32,10.80
2015,05,14,03,33,10.80
2015,05,14,03,34,10.80
2015,05,14,03,35,10.80
2015,05,14,03,36,10.80
2015,05,14,03,37,10.80
2015,05,14,03,38,10.80
2015,05,14,03,39,10.80
2015,05,14,03,40,10.80
2015,05,14,03,41,10.80
2015,05,14,03,42,10.80
2015,05,14,03,43,10.80
2015,05,14,03,44,10.80
2015,05,14,03,45,10.80
2015,05,14,03,46,10.80
2015,05,14,03,47,10.80
2015,05,14,03,48,10.80
2015,05,14,03,49,10.80
2015,05,14,03,50,10.80
2015,05,14,03,51,10.80
2015,05,14,03,52,10.80
2015,05,14,03,53,10.80
2015,05,14,03,54,10.80
2015,05,14,03,55,10.80
2015,05,14,03,56,10.80
2015,05,14,03,57,10.80
2015,05,14,03,58,10.80
2015,05,14,03,59,10.80
2015,05,14,04,00,10.80
2015,05,14,04,01,10.80
2015,05,14,04,02,10.80
2015,05,14,04,03,10.80
2015,05,14,04,04,10.80
2015,05,14,04,05,10.80
2015,05,14,04,06,10.80
2015,05,14,04,07,10.80
2015,05,14,04,08,10.80
2015,05,14,04,09,10.80
2015,05,14,04,10,10.80
2015,05,14,04,11,10.80
2015,05,14,04,12,10.80
2015,05,14,04,13,10.80
2015,05,14,04,14,10.80
2015,05,14,04,15,10.80
2015,05,14,04,16,10.80
2015,05,14,04,17,10.80
2015,05,14,04,18,10.80
2015,05,14,04,19,10.80
2015,05,14,04,20,10.80
2015,05,14,04,21,10.80
2015,05,14,04,22,10.80
2015,05,14,04,23,10.80
2015,05,14,04,24,10.80
2015,05,14,04,25,10.80
2015,05,14,04,26,10.70
2015,05,14,04,27,10.70
2015,05,14,04,28,10.70
2015,05,14,04,29,10.70
2015,05,14,04,30,10.70
2015,05,14,04,31,10.70
2015,05,14,04,32,10.70
2015,05,14,04,33,10.70
2015,05,14,04,34,10.70
2015,05,14,04,35,10.70
2015,05,14,04,36,10.70
2015,05,14,04,37,10.70
2015,05,14,04,38,10.70
2015,05,14,04,39,10.60
2015,05,14,04,40,10.60
2015,05,14,04,41,10.60
2015,05,14,04,42,10.60
2015,05,14,04,43,10.60
2015,05,14,04,44,10.60
2015,05,14,04,45,10.60
2015,05,14,04,46,10.60
2015,05,14,04,47,10.60
2015,05,14,04,48,10.60
2015,05,14,04,49,10.60
2015,05,14,04,50,10.60
2015,05,14,04,51,10.60
2015,05,14,04,52,10.70
2015,05,14,04,53,10.70
2015,05,14,04,54,10.70
2015,05,14,04,55,10.70
2015,05,14,04,56,10.70
2015,05,14,04,57,10.70
2015,05,14,04,58,10.70
2015,05,14,04,59,10.60
2015,05,14,05,00,10.60
2015,05,14,05,01,10.60
2015,05,14,05,02,10.60
2015,05,14,05,03,10.60
2015,05,14,05,04,10.60
2015,05,14,05,05,10.60
2015,05,14,05,06,10.60
2015,05,14,05,07,10.60
2015,05,14,05,08,10.60
2015,05,14,05,09,10.60
2015,05,14,05,10,10.60
2015,05,14,05,11,10.60
2015,05,14,05,12,10.60
2015,05,14,05,13,10.60
2015,05,14,05,14,10.60
2015,05,14,05,15,10.60
2015,05,14,05,16,10.60
2015,05,14,05,17,10.60
2015,05,14,05,18,10.60
2015,05,14,05,19,10.60
2015,05,14,05,20,10.60
2015,05,14,05,21,10.60
2015,05,14,05,22,10.60
2015,05,14,05,23,10.60
2015,05,14,05,24,10.60
2015,05,14,05,25,10.60
2015,05,14,05,26,10.60
2015,05,14,05,27,10.70
2015,05,14,05,28,10.70
2015,05,14,05,29,10.70
2015,05,14,05,30,10.70
2015,05,14,05,31,10.70
2015,05,14,05,32,10.60
2015,05,14,05,33,10.60
2015,05,14,05,34,10.60
2015,05,14,05,35,10.60
2015,05,14,05,36,10.60
2015,05,14,05,37,10.60
2015,05,14,05,38,10.60
2015,05,14,05,39,10.60
2015,05,14,05,40,10.60
2015,05,14,05,41,10.60
2015,05,14,05,42,10.60
2015,05,14,05,43,10.60
2015,05,14,05,44,10.60
2015,05,14,05,45,10.60
2015,05,14,05,46,10.60
2015,05,14,05,47,10.60
2015,05,14,05,48,10.60
2015,05,14,05,49,10.60
2015,05,14,05,50,10.60
2015,05,14,05,51,10.60
2015,05,14,05,52,10.60
2015,05,14,05,53,10.60
2015,05,14,05,54,10.60
2015,05,14,05,55,10.60
2015,05,14,05,56,10.60
2015,05,14,05,57,10.60
2015,05,14,05,58,10.60
2015,05,14,05,59,10.60
2015,05,14,06,00,10.60
2015,05,14,06,01,10.60
2015,05,14,06,02,10.60
2015,05,14,06,03,10.60
2015,05,14,06,04,10.60
2015,05,14,06,05,10.60
2015,05,14,06,06,10.60
2015,05,14,06,07,10.60
2015,05,14,06,08,10.60
2015,05,14,06,09,10.60
2015,05,14,06,10,10.60
2015,05,14,06,11,10.60
2015,05,14,06,12,10.60
2015,05,14,06,13,10.60
2015,05,14,06,14,10.60
2015,05,14,06,15,10.60
2015,05,14,06,16,10.60
2015,05,14,06,17,10.60
2015,05,14,06,18,10.60
2015,05,14,06,19,10.60
2015,05,14,06,20,10.60
2015,05,14,06,21,10.60
2015,05,14,06,22,10.60
2015,05,14,06,23,10.60
2015,05,14,06,24,10.60
2015,05,14,06,25,10.60
2015,05,14,06,26,10.60
2015,05,14,06,27,10.60
2015,05,14,06,28,10.60
2015,05,14,06,29,10.60
2015,05,14,06,30,10.60
2015,05,14,06,31,10.60
2015,05,14,06,32,10.60
2015,05,14,06,33,10.60
2015,05,14,06,34,10.60
2015,05,14,06,35,10.60
2015,05,14,06,36,10.60
2015,05,14,06,37,10.60
2015,05,14,06,38,10.60
2015,05,14,06,39,10.60
2015,05,14,06,40,10.60
2015,05,14,06,41,10.60
2015,05,14,06,42,10.60
2015,05,14,06,43,10.60
2015,05,14,06,44,10.60
2015,05,14,06,45,10.60
2015,05,14,06,46,10.60
2015,05,14,06,47,10.60
2015,05,14,06,48,10.60
2015,05,14,06,49,10.60
2015,05,14,06,50,10.60
2015,05,14,06,51,10.60
2015,05,14,06,52,10.60
2015,05,14,06,53,10.60
2015,05,14,06,54,10.60
2015,05,14,06,55,10.60
2015,05,14,06,56,10.60
2015,05,14,06,57,10.60
2015,05,14,06,58,10.60
2015,05,14,06,59,10.60
2015,05,14,07,00,10.60
2015,05,14,07,01,10.50
2015,05,14,07,02,10.50
2015,05,14,07,03,10.50
2015,05,14,07,04,10.50
2015,05,14,07,05,10.50
2015,05,14,07,06,10.50
2015,05,14,07,07,10.50
2015,05,14,07,08,10.60
2015,05,14,07,09,10.60
2015,05,14,07,10,10.50
2015,05,14,07,11,10.50
2015,05,14,07,12,10.50
2015,05,14,07,13,10.50
2015,05,14,07,14,10.60
2015,05,14,07,15,10.60
2015,05,14,07,16,10.60
2015,05,14,07,17,10.60
2015,05,14,07,18,10.60
2015,05,14,07,19,10.70
2015,05,14,07,20,10.70
2015,05,14,07,21,10.70
2015,05,14,07,22,10.70
2015,05,14,07,23,10.70
2015,05,14,07,24,10.80
2015,05,14,07,25,10.80
2015,05,14,07,26,10.80
2015,05,14,07,27,10.80
2015,05,14,07,28,10.80
2015,05,14,07,29,10.80
2015,05,14,07,30,10.80
2015,05,14,07,31,10.80
2015,05,14,07,32,10.80
2015,05,14,07,33,10.80
2015,05,14,07,34,10.80
2015,05,14,07,35,10.80
2015,05,14,07,36,10.80
2015,05,14,07,37,10.80
2015,05,14,07,38,10.80
2015,05,14,07,39,10.80
2015,05,14,07,40,10.80
2015,05,14,07,41,10.80
2015,05,14,07,42,10.80
2015,05,14,07,43,10.80
2015,05,14,07,44,10.80
2015,05,14,07,45,10.80
2015,05,14,07,46,10.80
2015,05,14,07,47,10.80
2015,05,14,07,48,10.80
2015,05,14,07,49,10.80
2015,05,14,07,50,10.80
2015,05,14,07,51,10.80
2015,05,14,07,52,10.80
2015,05,14,07,53,10.80
2015,05,14,07,54,10.80
2015,05,14,07,55,10.80
2015,05,14,07,56,10.80
2015,05,14,07,57,10.80
2015,05,14,07,58,10.80
2015,05,14,07,59,10.80
2015,05,14,08,00,10.90
2015,05,14,08,01,10.90
2015,05,14,08,02,10.90
2015,05,14,08,03,10.90
2015,05,14,08,04,10.90
2015,05,14,08,05,10.90
2015,05,14,08,06,10.90
2015,05,14,08,07,10.90
2015,05,14,08,08,10.90
2015,05,14,08,09,11.00
2015,05,14,08,10,11.00
2015,05,14,08,11,11.00
2015,05,14,08,12,11.10
2015,05,14,08,13,11.00
2015,05,14,08,14,11.00
2015,05,14,08,15,11.00
2015,05,14,08,16,11.00
2015,05,14,08,17,11.00
2015,05,14,08,18,11.00
2015,05,14,08,19,11.00
2015,05,14,08,20,10.90
2015,05,14,08,21,10.90
2015,05,14,08,22,10.90
2015,05,14,08,23,10.90
2015,05,14,08,24,10.90
2015,05,14,08,25,10.90
2015,05,14,08,26,10.90
2015,05,14,08,27,10.90
2015,05,14,08,28,10.90
2015,05,14,08,29,10.90
2015,05,14,08,30,10.90
2015,05,14,08,31,10.90
2015,05,14,08,32,10.90
2015,05,14,08,33,10.90
2015,05,14,08,34,10.90
2015,05,14,08,35,10.90
2015,05,14,08,36,10.90
2015,05,14,08,37,10.90
2015,05,14,08,38,10.90
2015,05,14,08,39,10.90
2015,05,14,08,40,10.90
2015,05,14,08,41,10.90
2015,05,14,08,42,11.00
2015,05,14,08,43,11.00
2015,05,14,08,44,10.90
2015,05,14,08,45,10.90
2015,05,14,08,46,10.90
2015,05,14,08,47,11.00
2015,05,14,08,48,11.00
2015,05,14,08,49,11.00
2015,05,14,08,50,11.00
2015,05,14,08,51,11.00
2015,05,14,08,52,11.00
2015,05,14,08,53,11.00
2015,05,14,08,54,11.10
2015,05,14,08,55,11.20
2015,05,14,08,56,11.20
2015,05,14,08,57,11.30
2015,05,14,08,58,11.30
2015,05,14,08,59,11.30
2015,05,14,09,00,11.30
2015,05,14,09,01,11.30
2015,05,14,09,02,11.30
2015,05,14,09,03,11.30
2015,05,14,09,04,11.30
2015,05,14,09,05,11.30
2015,05,14,09,06,11.30
2015,05,14,09,07,11.20
2015,05,14,09,08,11.20
2015,05,14,09,09,11.20
2015,05,14,09,10,11.20
2015,05,14,09,11,11.20
2015,05,14,09,12,11.20
2015,05,14,09,13,11.20
2015,05,14,09,14,11.20
2015,05,14,09,15,11.30
2015,05,14,09,16,11.20
2015,05,14,09,17,11.30
2015,05,14,09,18,11.30
2015,05,14,09,19,11.30
2015,05,14,09,20,11.30
2015,05,14,09,21,11.40
2015,05,14,09,22,11.30
2015,05,14,09,23,11.30
2015,05,14,09,24,11.30
2015,05,14,09,25,11.30
2015,05,14,09,26,11.30
2015,05,14,09,27,11.20
2015,05,14,09,28,11.20
2015,05,14,09,29,11.20
2015,05,14,09,30,11.20
2015,05,14,09,31,11.20
2015,05,14,09,32,11.20
2015,05,14,09,33,11.20
2015,05,14,09,34,11.20
2015,05,14,09,35,11.20
2015,05,14,09,36,11.20
2015,05,14,09,37,11.20
2015,05,14,09,38,11.20
2015,05,14,09,39,11.20
2015,05,14,09,40,11.20
2015,05,14,09,41,11.20
2015,05,14,09,42,11.20
2015,05,14,09,43,11.20
2015,05,14,09,44,11.20
2015,05,14,09,45,11.30
2015,05,14,09,46,11.30
2015,05,14,09,47,11.30
2015,05,14,09,48,11.30
2015,05,14,09,49,11.30
2015,05,14,09,50,11.30
2015,05,14,09,51,11.30
2015,05,14,09,52,11.30
2015,05,14,09,53,11.30
2015,05,14,09,54,11.30
2015,05,14,09,55,11.30
2015,05,14,09,56,11.30
2015,05,14,09,57,11.30
2015,05,14,09,58,11.30
2015,05,14,09,59,11.30
2015,05,14,10,00,11.40
2015,05,14,10,01,11.40
2015,05,14,10,02,11.40
2015,05,14,10,03,11.50
2015,05,14,10,04,11.50
2015,05,14,10,05,11.50
2015,05,14,10,06,11.50
2015,05,14,10,07,11.50
2015,05,14,10,08,11.60
2015,05,14,10,09,11.60
2015,05,14,10,10,11.50
2015,05,14,10,11,11.40
2015,05,14,10,12,11.40
2015,05,14,10,13,11.40
2015,05,14,10,14,11.40
2015,05,14,10,15,11.40
2015,05,14,10,16,11.40
2015,05,14,10,17,11.40
2015,05,14,10,18,11.40
2015,05,14,10,19,11.50
2015,05,14,10,20,11.50
2015,05,14,10,21,11.50
2015,05,14,10,22,11.50
2015,05,14,10,23,11.50
2015,05,14,10,24,11.60
2015,05,14,10,25,11.60
2015,05,14,10,26,11.70
2015,05,14,10,27,11.70
2015,05,14,10,28,11.70
2015,05,14,10,29,11.80
2015,05,14,10,30,11.90
2015,05,14,10,31,11.90
2015,05,14,10,32,12.00
2015,05,14,10,33,12.00
2015,05,14,10,34,12.10
2015,05,14,10,35,12.10
2015,05,14,10,36,12.10
2015,05,14,10,37,12.20
2015,05,14,10,38,12.30
2015,05,14,10,39,12.30
2015,05,14,10,40,12.40
2015,05,14,10,41,12.40
2015,05,14,10,42,12.50
2015,05,14,10,43,12.50
2015,05,14,10,44,12.50
2015,05,14,10,45,12.50
2015,05,14,10,46,12.60
2015,05,14,10,47,12.60
2015,05,14,10,48,12.70
2015,05,14,10,49,12.80
2015,05,14,10,50,12.80
2015,05,14,10,51,12.90
2015,05,14,10,52,13.00
2015,05,14,10,53,13.00
2015,05,14,10,54,13.10
2015,05,14,10,55,13.10
2015,05,14,10,56,13.10
2015,05,14,10,57,13.20
2015,05,14,10,58,13.20
2015,05,14,10,59,13.20
2015,05,14,11,00,13.30
2015,05,14,11,01,13.30
2015,05,14,11,02,13.20
2015,05,14,11,03,13.10
2015,05,14,11,04,13.00
2015,05,14,11,05,12.90
2015,05,14,11,06,12.90
2015,05,14,11,07,12.80
2015,05,14,11,08,12.80
2015,05,14,11,09,12.80
2015,05,14,11,10,12.80
2015,05,14,11,11,12.80
2015,05,14,11,12,12.90
2015,05,14,11,13,12.90
2015,05,14,11,14,12.90
2015,05,14,11,15,13.00
2015,05,14,11,16,13.00
2015,05,14,11,17,13.00
2015,05,14,11,18,13.00
2015,05,14,11,19,13.00
2015,05,14,11,20,13.00
2015,05,14,11,21,13.00
2015,05,14,11,22,13.00
2015,05,14,11,23,12.90
2015,05,14,11,24,12.90
2015,05,14,11,25,12.90
2015,05,14,11,26,12.90
2015,05,14,11,27,12.90
2015,05,14,11,28,12.90
2015,05,14,11,29,12.90
2015,05,14,11,30,12.90
2015,05,14,11,31,12.90
2015,05,14,11,32,12.90
2015,05,14,11,33,12.90
2015,05,14,11,34,12.90
2015,05,14,11,35,13.00
2015,05,14,11,36,13.00
2015,05,14,11,37,13.10
2015,05,14,11,38,13.20
2015,05,14,11,39,13.30
2015,05,14,11,40,13.50
2015,05,14,11,41,13.60
2015,05,14,11,42,13.70
2015,05,14,11,43,13.70
2015,05,14,11,44,13.60
2015,05,14,11,45,13.60
2015,05,14,11,46,13.60
2015,05,14,11,47,13.60
2015,05,14,11,48,13.70
2015,05,14,11,49,13.70
2015,05,14,11,50,13.70
2015,05,14,11,51,13.70
2015,05,14,11,52,13.80
2015,05,14,11,53,13.70
2015,05,14,11,54,13.70
2015,05,14,11,55,13.70
2015,05,14,11,56,13.60
2015,05,14,11,57,13.60
2015,05,14,11,58,13.60
2015,05,14,11,59,13.60
2015,05,14,12,00,13.70
2015,05,14,12,01,13.70
2015,05,14,12,02,13.70
2015,05,14,12,03,13.80
2015,05,14,12,04,13.80
2015,05,14,12,05,13.90
2015,05,14,12,06,13.90
2015,05,14,12,07,14.00
2015,05,14,12,08,14.00
2015,05,14,12,09,14.10
2015,05,14,12,10,14.10
2015,05,14,12,11,14.20
2015,05,14,12,12,14.20
2015,05,14,12,13,14.40
2015,05,14,12,14,14.50
2015,05,14,12,15,14.50
2015,05,14,12,16,14.50
2015,05,14,12,17,14.60
2015,05,14,12,18,14.60
2015,05,14,12,19,14.60
2015,05,14,12,20,14.70
2015,05,14,12,21,14.70
2015,05,14,12,22,14.70
2015,05,14,12,23,14.80
2015,05,14,12,24,14.90
2015,05,14,12,25,15.00
2015,05,14,12,26,15.00
2015,05,14,12,27,15.00
2015,05,14,12,28,15.00
2015,05,14,12,29,15.00
2015,05,14,12,30,15.00
2015,05,14,12,31,15.00
2015,05,14,12,32,15.00
2015,05,14,12,33,15.10
2015,05,14,12,34,15.20
2015,05,14,12,35,15.20
2015,05,14,12,36,15.20
2015,05,14,12,37,15.20
2015,05,14,12,38,15.20
2015,05,14,12,39,15.20
2015,05,14,12,40,15.20
2015,05,14,12,41,15.20
2015,05,14,12,42,15.30
2015,05,14,12,43,15.30
2015,05,14,12,44,15.40
2015,05,14,12,45,15.50
2015,05,14,12,46,15.60
2015,05,14,12,47,15.70
2015,05,14,12,48,15.80
2015,05,14,12,49,15.90
2015,05,14,12,50,15.80
2015,05,14,12,51,15.80
2015,05,14,12,52,15.60
2015,05,14,12,53,15.40
2015,05,14,12,54,15.20
2015,05,14,12,55,15.00
2015,05,14,12,56,15.00
2015,05,14,12,57,15.00
2015,05,14,12,58,15.00
2015,05,14,12,59,15.00
2015,05,14,13,00,15.20
2015,05,14,13,01,15.30
2015,05,14,13,02,15.30
2015,05,14,13,03,15.20
2015,05,14,13,04,15.20
2015,05,14,13,05,15.20
2015,05,14,13,06,15.30
2015,05,14,13,07,15.40
2015,05,14,13,08,15.60
2015,05,14,13,09,15.60
2015,05,14,13,10,15.70
2015,05,14,13,11,15.80
2015,05,14,13,12,15.80
2015,05,14,13,13,15.70
2015,05,14,13,14,15.60
2015,05,14,13,15,15.60
2015,05,14,13,16,15.60
2015,05,14,13,17,15.60
2015,05,14,13,18,15.60
2015,05,14,13,19,15.60
2015,05,14,13,20,15.60
2015,05,14,13,21,15.60
2015,05,14,13,22,15.60
2015,05,14,13,23,15.60
2015,05,14,13,24,15.60
2015,05,14,13,25,15.60
2015,05,14,13,26,15.60
2015,05,14,13,27,15.60
2015,05,14,13,28,15.60
2015,05,14,13,29,15.70
2015,05,14,13,30,15.70
2015,05,14,13,31,15.70
2015,05,14,13,32,15.80
2015,05,14,13,33,15.70
2015,05,14,13,34,15.70
2015,05,14,13,35,15.70
2015,05,14,13,36,15.80
2015,05,14,13,37,15.80
2015,05,14,13,38,15.80
2015,05,14,13,39,15.70
2015,05,14,13,40,15.70
2015,05,14,13,41,15.60
2015,05,14,13,42,15.50
2015,05,14,13,43,15.50
2015,05,14,13,44,15.60
2015,05,14,13,45,15.70
2015,05,14,13,46,15.80
2015,05,14,13,47,15.70
2015,05,14,13,48,15.70
2015,05,14,13,49,15.70
2015,05,14,13,50,15.70
2015,05,14,13,51,15.60
2015,05,14,13,52,15.60
2015,05,14,13,53,15.60
2015,05,14,13,54,15.60
2015,05,14,13,55,15.60
2015,05,14,13,56,15.70
2015,05,14,13,57,15.90
2015,05,14,13,58,16.00
2015,05,14,13,59,16.00
2015,05,14,14,00,16.00
2015,05,14,14,01,15.90
2015,05,14,14,02,16.00
2015,05,14,14,03,16.20
2015,05,14,14,04,16.30
2015,05,14,14,05,16.30
2015,05,14,14,06,16.30
2015,05,14,14,07,16.20
2015,05,14,14,08,16.20
2015,05,14,14,09,16.20
2015,05,14,14,10,16.10
2015,05,14,14,11,16.10
2015,05,14,14,12,16.00
2015,05,14,14,13,16.10
2015,05,14,14,14,16.20
2015,05,14,14,15,16.30
2015,05,14,14,16,16.40
2015,05,14,14,17,16.60
2015,05,14,14,18,16.70
2015,05,14,14,19,16.80
2015,05,14,14,20,16.80
2015,05,14,14,21,16.80
2015,05,14,14,22,16.70
2015,05,14,14,23,16.80
2015,05,14,14,24,16.80
2015,05,14,14,25,16.70
2015,05,14,14,26,16.70
2015,05,14,14,27,16.60
2015,05,14,14,28,16.60
2015,05,14,14,29,16.60
2015,05,14,14,30,16.60
2015,05,14,14,31,16.60
2015,05,14,14,32,16.60
2015,05,14,14,33,16.50
2015,05,14,14,34,16.50
2015,05,14,14,35,16.50
2015,05,14,14,36,16.40
2015,05,14,14,37,16.30
2015,05,14,14,38,16.40
2015,05,14,14,39,16.40
2015,05,14,14,40,16.50
2015,05,14,14,41,16.50
2015,05,14,14,42,16.70
2015,05,14,14,43,16.80
2015,05,14,14,44,16.80
2015,05,14,14,45,16.80
2015,05,14,14,46,16.70
2015,05,14,14,47,16.70
2015,05,14,14,48,16.60
2015,05,14,14,49,16.50
2015,05,14,14,50,16.50
2015,05,14,14,51,16.40
2015,05,14,14,52,16.50
2015,05,14,14,53,16.60
2015,05,14,14,54,16.70
2015,05,14,14,55,16.70
2015,05,14,14,56,16.70
2015,05,14,14,57,16.80
2015,05,14,14,58,16.90
2015,05,14,14,59,17.00
2015,05,14,15,00,17.00
2015,05,14,15,01,17.00
2015,05,14,15,02,16.90
2015,05,14,15,03,16.80
2015,05,14,15,04,16.80
2015,05,14,15,05,16.80
2015,05,14,15,06,16.80
2015,05,14,15,07,16.70
2015,05,14,15,08,16.70
2015,05,14,15,09,16.70
2015,05,14,15,10,16.70
2015,05,14,15,11,16.80
2015,05,14,15,12,16.90
2015,05,14,15,13,17.00
2015,05,14,15,14,17.10
2015,05,14,15,15,17.20
2015,05,14,15,16,17.30
2015,05,14,15,17,17.40
2015,05,14,15,18,17.40
2015,05,14,15,19,17.40
2015,05,14,15,20,17.30
2015,05,14,15,21,17.30
2015,05,14,15,22,17.40
2015,05,14,15,23,17.40
2015,05,14,15,24,17.50
2015,05,14,15,25,17.60
2015,05,14,15,26,17.70
2015,05,14,15,27,17.80
2015,05,14,15,28,17.90
2015,05,14,15,29,17.90
2015,05,14,15,30,17.80
2015,05,14,15,31,17.80
2015,05,14,15,32,17.80
2015,05,14,15,33,17.80
2015,05,14,15,34,17.70
2015,05,14,15,35,17.60
2015,05,14,15,36,17.40
2015,05,14,15,37,17.40
2015,05,14,15,38,17.30
2015,05,14,15,39,17.20
2015,05,14,15,40,17.10
2015,05,14,15,41,16.90
2015,05,14,15,42,16.80
2015,05,14,15,43,16.70
2015,05,14,15,44,16.80
2015,05,14,15,45,16.80
2015,05,14,15,46,16.80
2015,05,14,15,47,16.90
2015,05,14,15,48,16.90
2015,05,14,15,49,17.00
2015,05,14,15,50,17.10
2015,05,14,15,51,17.10
2015,05,14,15,52,17.20
2015,05,14,15,53,17.20
2015,05,14,15,54,17.20
2015,05,14,15,55,17.20
2015,05,14,15,56,17.20
2015,05,14,15,57,17.30
2015,05,14,15,58,17.40
2015,05,14,15,59,17.50
2015,05,14,16,00,17.60
2015,05,14,16,01,17.50
2015,05,14,16,02,17.50
2015,05,14,16,03,17.50
2015,05,14,16,04,17.50
2015,05,14,16,05,17.50
2015,05,14,16,06,17.50
2015,05,14,16,07,17.60
2015,05,14,16,08,17.70
2015,05,14,16,09,17.60
2015,05,14,16,10,17.60
2015,05,14,16,11,17.50
2015,05,14,16,12,17.40
2015,05,14,16,13,17.40
2015,05,14,16,14,17.30
2015,05,14,16,15,17.20
2015,05,14,16,16,17.20
2015,05,14,16,17,17.20
2015,05,14,16,18,17.20
2015,05,14,16,19,17.20
2015,05,14,16,20,17.20
2015,05,14,16,21,17.30
2015,05,14,16,22,17.30
2015,05,14,16,23,17.40
2015,05,14,16,24,17.50
2015,05,14,16,25,17.60
2015,05,14,16,26,17.60
2015,05,14,16,27,17.70
2015,05,14,16,28,17.60
2015,05,14,16,29,17.60
2015,05,14,16,30,17.60
2015,05,14,16,31,17.50
2015,05,14,16,32,17.50
2015,05,14,16,33,17.50
2015,05,14,16,34,17.50
2015,05,14,16,35,17.40
2015,05,14,16,36,17.40
2015,05,14,16,37,17.40
2015,05,14,16,38,17.40
2015,05,14,16,39,17.40
2015,05,14,16,40,17.40
2015,05,14,16,41,17.50
2015,05,14,16,42,17.60
2015,05,14,16,43,17.60
2015,05,14,16,44,17.50
2015,05,14,16,45,17.40
2015,05,14,16,46,17.30
2015,05,14,16,47,17.30
2015,05,14,16,48,17.30
2015,05,14,16,49,17.20
2015,05,14,16,50,17.20
2015,05,14,16,51,17.40
2015,05,14,16,52,17.40
2015,05,14,16,53,17.30
2015,05,14,16,54,17.30
2015,05,14,16,55,17.20
2015,05,14,16,56,17.20
2015,05,14,16,57,17.20
2015,05,14,16,58,17.20
2015,05,14,16,59,17.20
2015,05,14,17,00,17.20
2015,05,14,17,01,17.20
2015,05,14,17,02,17.10
2015,05,14,17,03,17.10
2015,05,14,17,04,17.10
2015,05,14,17,05,17.10
2015,05,14,17,06,17.10
2015,05,14,17,07,17.00
2015,05,14,17,08,16.90
2015,05,14,17,09,16.90
2015,05,14,17,10,16.90
2015,05,14,17,11,16.90
2015,05,14,17,12,16.90
2015,05,14,17,13,16.80
2015,05,14,17,14,16.80
2015,05,14,17,15,16.80
2015,05,14,17,16,16.90
2015,05,14,17,17,17.00
2015,05,14,17,18,17.10
2015,05,14,17,19,17.20